Location: Oak Glen
(34.0495°N, 116.9470°E)
Time: 00:23:38
(UTC-07:00)

Vanguard 1 Rocket - All Passes

Search period start: 19 October 2017 00:00
Search period end: 29 October 2017 00:00
Orbit: 655 x 4222 km, 34.3° (Epoch: 18 October)

Date Brightness Start Highest point End Pass type
(mag) Time Alt. Az. Time Alt. Az. Time Alt. Az.
19 Oct - 14:05:47 10° SSW 14:15:04 28° SSE 14:20:47 10° E visible
19 Oct - 16:33:22 10° WSW 16:40:52 67° SSE 16:45:34 10° E daylight
19 Oct - 19:00:50 10° W 19:05:44 89° NNE 19:10:13 10° E daylight
19 Oct - 21:26:12 10° W 21:30:21 37° SSW 21:35:54 10° SE daylight
19 Oct - 23:54:34 10° SW 23:56:00 11° SSW 23:57:36 10° SSW daylight
20 Oct - 12:53:58 10° SSW 13:03:09 21° SSE 13:09:18 10° ESE visible
20 Oct - 15:20:33 10° SW 15:29:52 50° SSE 15:35:13 10° E daylight
20 Oct - 17:49:02 10° W 17:55:03 88° N 17:59:28 10° E daylight
20 Oct - 20:15:23 10° W 20:19:43 58° SSW 20:24:38 10° ESE daylight
20 Oct - 22:41:21 10° WSW 22:44:39 17° SSW 22:48:52 10° SSE daylight
21 Oct - 11:43:37 10° S 11:50:42 14° SSE 11:56:10 10° ESE visible
21 Oct - 14:07:33 10° SW 14:18:30 38° SSE 14:24:42 10° E visible
21 Oct - 16:36:27 10° WSW 16:44:15 80° S 16:49:03 10° E daylight
21 Oct - 19:04:12 10° W 19:09:10 82° S 19:13:37 10° ESE daylight
21 Oct - 21:29:57 10° W 21:33:43 26° SSW 21:38:27 10° SSE daylight
22 Oct - 12:54:45 10° SSW 13:06:37 29° SSE 13:13:44 10° E visible
22 Oct - 15:23:14 10° WSW 15:33:15 63° SSE 15:38:46 10° E daylight
22 Oct - 17:52:21 10° W 17:58:29 87° N 18:02:56 10° E daylight
22 Oct - 20:18:52 10° W 20:23:05 42° SSW 20:27:42 10° SE daylight
23 Oct - 11:42:44 10° SSW 11:54:12 21° SSE 12:01:51 10° ESE visible
23 Oct - 14:09:40 10° SW 14:21:52 49° SSE 14:28:24 10° E visible
23 Oct - 16:39:38 10° W 16:47:40 88° SSE 16:52:31 10° E daylight
23 Oct - 19:07:34 10° W 19:12:34 68° SSW 19:16:58 10° ESE daylight
23 Oct - 21:34:05 10° WSW 21:37:04 17° SSW 21:40:31 10° SSE daylight
24 Oct - 10:32:43 10° S 10:41:12 14° SSE 10:47:50 10° ESE visible
24 Oct - 12:56:07 10° SW 13:10:01 38° SSE 13:17:43 10° E visible
24 Oct - 15:26:07 10° WSW 15:36:36 75° SSE 15:42:16 10° E daylight
24 Oct - 17:55:39 10° W 18:01:56 89° S 18:06:23 10° E daylight
24 Oct - 20:22:29 10° W 20:26:24 30° SSW 20:30:32 10° SE daylight
25 Oct - 11:43:05 10° SSW 11:57:35 29° SSE 12:06:23 10° E visible
25 Oct - 14:12:04 10° WSW 14:25:13 61° SSE 14:31:57 10° E visible
25 Oct - 16:42:51 10° W 16:51:05 88° N 16:56:00 10° E daylight
25 Oct - 19:10:57 10° W 19:15:55 52° SSW 19:20:12 10° ESE daylight
26 Oct - 10:31:15 10° S 10:44:37 21° SSE 10:53:51 10° ESE visible
26 Oct - 12:57:53 10° SW 13:13:20 49° SSE 13:21:26 10° E visible
26 Oct - 15:29:08 10° WSW 15:39:58 85° S 15:45:44 10° E daylight
26 Oct - 17:58:57 10° W 18:05:20 79° SSW 18:09:49 10° ESE daylight
26 Oct - 20:26:21 10° WSW 20:29:39 20° SSW 20:33:02 10° SSE daylight
27 Oct - 09:22:16 10° SSE 09:31:07 14° SE 09:38:24 10° ESE visible
27 Oct - 11:44:04 10° SSW 12:00:54 38° SSE 12:10:26 10° E visible
27 Oct - 14:14:42 10° WSW 14:28:31 72° SSE 14:35:28 10° E visible
27 Oct - 16:46:05 10° W 16:54:30 88° N 16:59:29 10° E daylight
27 Oct - 19:14:24 10° W 19:19:12 38° SSW 19:23:17 10° SE daylight
28 Oct - 10:31:11 10° SSW 10:47:54 29° SSE 10:58:35 10° E visible
28 Oct - 12:59:58 10° SW 13:16:37 59° SSE 13:25:01 10° E visible
28 Oct - 15:32:13 10° W 15:43:21 90° N 15:49:12 10° E daylight
28 Oct - 18:02:13 10° W 18:08:42 65° SSW 18:13:10 10° ESE daylight
28 Oct - 20:30:53 10° WSW 20:32:49 12° SSW 20:34:46 10° S daylight
